[[{"header":{"parameterUnit":"m.s-1","parameterCategory":1,"la1":30.2991,"la2":30.254,"lo1":-89.0895,"lo2":-89.0444,"dy":0.0017,"dx":0.0017,"nx":28,"ny":28,"refTime":"2025-08-27T09:00:00:Z","depth":0,"parameterNumber":2,"parameterNumberName":"U-component_of_WINDS"},"data":[0,0,0,0,0,0,0,0,0,0,0,0,0,0,0,0,0,0,0,0,0,0,0,0,0,0,0,0,0,0,0,0,0,0,0,0,0,0,0,0,0,0,0,0,0,0,0,0,0,0,0,0,0,0,0,0,0,0,-2.238,-2.2379,0,-2.2343,-2.2343,-2.2343,-2.2246,-2.2244,-2.2242,-2.224,-2.2206,-2.2207,-2.2208,0,0,0,0,0,0,0,0,0,0,0,0,0,-2.2369,-2.237,-2.238,-2.2379,-2.2379,-2.2343,-2.2343,-2.2343,-2.2246,-2.2244,-2.2241,-2.2239,-2.2205,-2.2207,-2.2208,0,0,0,0,0,0,0,0,0,0,0,0,0,-2.2358,-2.237,-2.238,-2.2326,-2.2321,-2.2344,-2.2343,-2.2342,-2.2247,-2.2244,-2.2241,-2.2238,-2.2205,-2.2207,-2.2208,-2.228,0,0,-2.2213,-2.2213,0,0,0,0,0,0,0,0,-2.2358,-2.2358,-2.2335,-2.233,-2.2324,-2.2296,-2.2327,-2.2322,-2.2248,-2.2275,-2.224,-2.2236,-2.2239,-2.2237,-2.2237,-2.2278,-2.2277,-2.2213,-2.2214,-2.2215,-2.2215,0,0,0,0,0,0,0,-2.2359,-2.2359,-2.2365,-2.2335,-2.2328,-2.2306,-2.23,-2.2325,-2.2275,-2.2273,-2.2265,-2.2262,-2.2235,-2.2236,-2.2236,-2.2277,-2.2213,-2.2214,-2.2215,-2.2216,-2.2377,-2.2381,0,0,0,0,0,0,-2.2367,-2.236,-2.2367,-2.2364,-2.2334,-2.2308,-2.2303,-2.2308,-2.2274,-2.2266,-2.2265,-2.2258,-2.2235,-2.2234,-2.2234,-2.2318,-2.2215,-2.2216,-2.2217,-2.2374,-2.2378,-2.2382,0,0,0,0,0,0,-2.2368,-2.2369,-2.2368,-2.236,-2.2359,-2.2312,-2.2319,-2.2309,-2.231,-2.2269,-2.2259,-2.2275,-2.2232,-2.2232,-2.227,-2.2315,-2.2217,-2.2218,-2.237,-2.2375,-2.238,-2.2485,0,0,0,0,0,0,-2.2368,-2.2369,-2.2395,-2.2362,-2.2359,-2.2403,-2.2322,-2.2311,-2.2313,-2.2303,-2.2276,-2.2268,-2.223,-2.2268,-2.2271,-2.2316,-2.2219,-2.2366,-2.2372,-2.2378,-2.2478,-2.2493,-2.2507,0,0,0,0,0,-2.2368,-2.2427,-2.2397,-2.2398,-2.2391,-2.2406,-2.2405,-2.2359,-2.2317,-2.2343,-2.2317,-2.2269,-2.231,-2.2273,-2.2275,-2.2321,-2.2363,-2.2371,-2.2378,-2.2471,-2.249,-2.2507,0,0,0,0,0,0,-2.2468,-2.2421,-2.2388,-2.2438,-2.2427,-2.239,-2.2422,-2.238,-2.2382,-2.2373,-2.2317,-2.2311,-2.2358,-2.2343,-2.2302,-2.239,-2.2328,-2.2337,-2.2398,-2.2416,-2.2431,-2.2434,-2.2221,0,0,0,0,0,-2.2495,-2.2511,-2.247,-2.2518,-2.2514,-2.2469,-2.2474,-2.2439,-2.2426,-2.2421,-2.2397,-2.2387,-2.2398,-2.2406,-2.2413,-2.2475,-2.2469,-2.2508,-2.2522,-2.2535,-2.2543,-2.2577,-2.2595,-2.2407,-2.2407,-2.2406,0,0,-2.2553,-2.253,-2.2543,-2.2537,-2.2524,-2.2543,-2.2466,-2.2488,-2.2502,-2.2425,-2.2459,-2.2442,-2.2427,-2.2477,-2.2498,-2.2466,-2.2594,-2.2544,-2.2554,-2.2556,-2.2587,-2.2604,-2.262,-2.2412,-2.2411,-2.241,0,0,-2.2668,-2.2651,-2.269,-2.2679,-2.266,-2.263,-2.264,-2.261,-2.2595,-2.2628,-2.2572,-2.2588,-2.2606,-2.2599,-2.2597,-2.2711,-2.2668,-2.2715,-2.2792,-2.2826,-2.284,-2.2853,-2.2896,-2.2912,-2.2723,-2.2723,-2.2724,0,-2.2743,-2.2767,-2.2716,-2.2742,-2.2742,-2.2673,-2.2713,-2.2705,-2.269,-2.2693,-2.2657,-2.268,-2.2665,-2.2714,-2.2742,-2.2742,-2.2753,-2.2718,-2.2842,-2.2855,-2.2866,-2.2906,-2.2922,-2.2729,-2.2729,-2.2728,-2.2728,0,-2.2861,-2.2879,-2.2913,-2.29,-2.2904,-2.2937,-2.2892,-2.2903,-2.2868,-2.2843,-2.2879,-2.2858,-2.2861,-2.287,-2.2836,-2.2915,-2.2896,-2.2852,-2.2789,-2.2891,-2.2928,-2.2943,-2.2738,-2.2736,-2.2734,-2.2733,0,0,-2.3038,-2.2997,-2.301,-2.3005,-2.298,-2.2994,-2.3025,-2.3027,-2.3038,-2.303,-2.3056,-2.3074,-2.3034,-2.3033,-2.2998,-2.3027,-2.3121,-2.298,-2.2978,-2.3009,-2.3209,-2.3244,-2.3263,-2.3092,-2.3095,-2.3097,-2.3211,0,-2.3148,-2.3198,-2.3153,-2.3212,-2.323,-2.3164,-2.3192,-2.318,-2.3158,-2.317,-2.3145,-2.316,-2.3104,-2.3103,-2.3129,-2.3105,-2.3161,-2.3095,-2.3118,-2.3119,-2.3126,-2.3281,-2.3318,-2.3427,-2.3225,-2.3228,-2.3229,0,-2.3283,-2.3282,-2.3343,-2.3316,-2.3321,-2.3347,-2.3346,-2.3358,-2.3345,-2.3326,-2.3325,-2.3283,-2.3313,-2.3251,-2.3293,-2.3249,-2.3256,-2.3245,-2.3249,-2.325,-2.3182,-2.329,-2.346,-2.3477,-2.3251,-2.3249,-2.3248,0,-2.3409,-2.3423,-2.3461,-2.3458,-2.3427,-2.3446,-2.3435,-2.3418,-2.3423,-2.3422,-2.3425,-2.3429,-2.3431,-2.3436,-2.3396,-2.3354,-2.3445,-2.3378,-2.3432,-2.3434,-2.3456,-2.3455,-2.3632,-2.3457,-2.3457,-2.3456,-2.3456,0,-2.3538,-2.3578,-2.3518,-2.3542,-2.3586,-2.3534,-2.358,-2.3561,-2.3547,-2.3568,-2.3511,-2.3532,-2.3477,-2.3493,-2.3462,-2.3504,-2.3505,-2.3492,-2.3484,-2.3498,-2.35,-2.3503,-2.3495,-2.3461,-2.346,-2.3459,-2.3458,0,-2.3687,-2.3647,-2.3685,-2.3653,-2.3645,-2.368,-2.3652,-2.3674,-2.3648,-2.3675,-2.3678,-2.3637,-2.3653,-2.3614,-2.3623,-2.3603,-2.3663,-2.3641,-2.3668,-2.3662,-2.3719,-2.3715,-2.3905,-2.3928,-2.3737,-2.3739,-2.374,0,-2.3772,-2.3802,-2.3772,-2.3782,-2.3773,-2.3789,-2.3793,-2.3744,-2.3752,-2.3739,-2.3764,-2.3774,-2.378,-2.3809,-2.3781,-2.3789,-2.3769,-2.3835,-2.377,-2.3784,-2.3773,-2.3772,-2.3776,-2.3849,-2.3851,-2.3853,-2.3855,0,-2.3929,-2.3908,-2.3917,-2.3919,-2.3926,-2.3926,-2.3922,-2.3933,-2.3881,-2.3892,-2.3907,-2.3912,-2.3922,-2.3935,-2.3937,-2.3926,-2.3883,-2.3875,-2.3889,-2.3905,-2.392,-2.3915,-2.3707,-2.3872,-2.387,-2.3869,-2.3868,-2.3867,-2.405,-2.4074,-2.4058,-2.407,-2.4061,-2.4059,-2.4079,-2.4055,-2.4066,-2.407,-2.4041,-2.4063,-2.405,-2.4048,-2.4042,-2.406,-2.403,-2.4049,-2.4054,-2.406,-2.407,-2.3915,-2.406,-2.4059,-2.4059,-2.4058,-2.4058,0,-2.4206,-2.4192,-2.4204,-2.42,-2.421,-2.4167,-2.416,-2.4172,-2.4192,-2.4183,-2.4191,-2.421,-2.4222,-2.4195,-2.4203,-2.4223,-2.4204,-2.4227,-2.4226,-2.4225,-2.4095,-2.4084,-2.4243,-2.4243,-2.4243,-2.4243,-2.4243,-2.4243,-2.4288,-2.4328,-2.4306,-2.4341,-2.4327,-2.4348,-2.4348,-2.4347,-2.434,-2.4363,-2.4372,-2.4355,-2.434,-2.4347,-2.4357,-2.4349,-2.4356,-2.4387,-2.4372,-2.4252,-2.4234,-2.4217,-2.4206,-2.4388,-2.4388,-2.4501,-2.4502,-2.4502]},{"header":{"parameterUnit":"m.s-1","parameterCategory":1,"la1":30.2991,"la2":30.254,"lo1":-89.0895,"lo2":-89.0444,"dy":0.0017,"dx":0.0017,"nx":28,"ny":28,"refTime":"2025-08-27T09:00:00:Z","depth":0,"parameterNumber":3,"parameterNumberName":"V-component_of_WINDS"},"data":[0,0,0,0,0,0,0,0,0,0,0,0,0,0,0,0,0,0,0,0,0,0,0,0,0,0,0,0,0,0,0,0,0,0,0,0,0,0,0,0,0,0,0,0,0,0,0,0,0,0,0,0,0,0,0,0,0,0,-0.5775,-0.5775,0,-0.5833,-0.5834,-0.5834,-0.5847,-0.5846,-0.5846,-0.5846,-0.5906,-0.5908,-0.591,0,0,0,0,0,0,0,0,0,0,0,0,0,-0.5675,-0.5677,-0.5775,-0.5775,-0.5776,-0.5833,-0.5834,-0.5834,-0.5847,-0.5846,-0.5846,-0.5845,-0.5905,-0.5908,-0.591,0,0,0,0,0,0,0,0,0,0,0,0,0,-0.5724,-0.5677,-0.5774,-0.5789,-0.5791,-0.5833,-0.5834,-0.5835,-0.5847,-0.5846,-0.5846,-0.5845,-0.5905,-0.5907,-0.591,-0.5942,0,0,-0.592,-0.5921,0,0,0,0,0,0,0,0,-0.5721,-0.5728,-0.5786,-0.5788,-0.579,-0.5832,-0.5821,-0.5871,-0.5847,-0.5826,-0.5846,-0.5845,-0.5882,-0.5887,-0.5899,-0.5945,-0.5947,-0.592,-0.5922,-0.5923,-0.5924,0,0,0,0,0,0,0,-0.5718,-0.5726,-0.5798,-0.5787,-0.579,-0.5793,-0.5799,-0.583,-0.5857,-0.5828,-0.5829,-0.5835,-0.5883,-0.5896,-0.5901,-0.5948,-0.592,-0.5923,-0.5924,-0.5926,-0.6023,-0.6024,0,0,0,0,0,0,-0.5712,-0.5723,-0.5796,-0.5799,-0.5754,-0.5795,-0.5802,-0.5819,-0.5856,-0.5861,-0.5836,-0.5836,-0.5891,-0.5897,-0.5903,-0.5943,-0.5923,-0.5926,-0.5928,-0.6023,-0.6024,-0.6025,0,0,0,0,0,0,-0.571,-0.5718,-0.5793,-0.5761,-0.5771,-0.5798,-0.5817,-0.5821,-0.5834,-0.5863,-0.5868,-0.5844,-0.5891,-0.5899,-0.5932,-0.5945,-0.5927,-0.593,-0.6022,-0.6023,-0.6024,-0.6023,0,0,0,0,0,0,-0.5707,-0.5718,-0.573,-0.5761,-0.5773,-0.5822,-0.5817,-0.5822,-0.5839,-0.5839,-0.5872,-0.5877,-0.5891,-0.5928,-0.5935,-0.5949,-0.5932,-0.6021,-0.6022,-0.6024,-0.6022,-0.6024,-0.6026,0,0,0,0,0,-0.5703,-0.5727,-0.573,-0.5739,-0.5788,-0.5822,-0.5829,-0.5845,-0.584,-0.5853,-0.5871,-0.5876,-0.5942,-0.5931,-0.594,-0.5955,-0.602,-0.6022,-0.6024,-0.6021,-0.6024,-0.6026,0,0,0,0,0,0,-0.5696,-0.5731,-0.5735,-0.577,-0.5793,-0.5824,-0.5841,-0.5847,-0.5872,-0.5871,-0.589,-0.5897,-0.593,-0.5945,-0.5932,-0.5987,-0.5981,-0.5985,-0.5976,-0.5979,-0.5981,-0.5977,-0.5935,0,0,0,0,0,-0.5698,-0.5723,-0.5752,-0.578,-0.5791,-0.5814,-0.5829,-0.584,-0.5864,-0.5874,-0.5895,-0.5919,-0.5946,-0.5963,-0.5989,-0.6024,-0.6032,-0.6039,-0.604,-0.6042,-0.6045,-0.6066,-0.607,-0.603,-0.603,-0.603,0,0,-0.5704,-0.5726,-0.574,-0.5779,-0.5798,-0.5824,-0.5822,-0.5849,-0.5868,-0.5879,-0.5912,-0.5928,-0.5956,-0.5991,-0.6007,-0.6005,-0.6058,-0.6044,-0.6045,-0.6048,-0.6068,-0.6072,-0.6075,-0.6032,-0.6031,-0.6031,0,0,-0.5727,-0.5745,-0.5771,-0.579,-0.5819,-0.5834,-0.584,-0.5871,-0.5882,-0.5916,-0.5924,-0.5947,-0.5992,-0.6012,-0.6028,-0.6059,-0.6065,-0.6067,-0.6077,-0.6097,-0.61,-0.6103,-0.6115,-0.6119,-0.6069,-0.6069,-0.607,0,-0.573,-0.5768,-0.5784,-0.5811,-0.5828,-0.5838,-0.5864,-0.5882,-0.5918,-0.593,-0.5926,-0.5983,-0.6003,-0.6043,-0.6051,-0.6063,-0.6071,-0.6064,-0.6098,-0.6102,-0.6104,-0.6116,-0.6121,-0.607,-0.607,-0.607,-0.607,0,-0.5771,-0.5798,-0.5815,-0.585,-0.5869,-0.5895,-0.5915,-0.5932,-0.5941,-0.5956,-0.5991,-0.6014,-0.6046,-0.6056,-0.6064,-0.6097,-0.6095,-0.6095,-0.6089,-0.6108,-0.612,-0.6124,-0.607,-0.607,-0.607,-0.607,0,0,-0.5793,-0.5835,-0.5841,-0.5858,-0.589,-0.5911,-0.5938,-0.5969,-0.5984,-0.6008,-0.6032,-0.6069,-0.607,-0.6088,-0.6098,-0.6116,-0.614,-0.6113,-0.6114,-0.6119,-0.618,-0.6181,-0.6186,-0.6143,-0.6144,-0.6145,-0.6178,0,-0.5821,-0.587,-0.5884,-0.5925,-0.5951,-0.596,-0.5984,-0.6007,-0.6022,-0.6045,-0.6062,-0.6089,-0.6086,-0.6097,-0.6115,-0.6133,-0.6153,-0.6131,-0.6167,-0.6168,-0.6161,-0.6192,-0.6194,-0.6224,-0.6183,-0.6183,-0.6184,0,-0.586,-0.5886,-0.5929,-0.5959,-0.5971,-0.5992,-0.6021,-0.6043,-0.607,-0.6079,-0.6099,-0.6108,-0.6138,-0.6129,-0.617,-0.6155,-0.617,-0.6181,-0.6183,-0.6188,-0.6178,-0.62,-0.6234,-0.6239,-0.6191,-0.619,-0.619,0,-0.5874,-0.5918,-0.595,-0.5964,-0.5999,-0.6014,-0.6029,-0.6055,-0.6072,-0.6098,-0.611,-0.6138,-0.6154,-0.6176,-0.6193,-0.6185,-0.6233,-0.6225,-0.6243,-0.6243,-0.6254,-0.6253,-0.6292,-0.6261,-0.6261,-0.6261,-0.6261,0,-0.5905,-0.5931,-0.5957,-0.5977,-0.6007,-0.6024,-0.6053,-0.6069,-0.6092,-0.6116,-0.6125,-0.6147,-0.6167,-0.6192,-0.6205,-0.6237,-0.6244,-0.6254,-0.6257,-0.6254,-0.6253,-0.6265,-0.6264,-0.6262,-0.6262,-0.6261,-0.6261,0,-0.5925,-0.5943,-0.5979,-0.601,-0.6018,-0.6039,-0.6065,-0.6085,-0.61,-0.613,-0.6138,-0.6162,-0.6191,-0.621,-0.6247,-0.6256,-0.6293,-0.6294,-0.6284,-0.6286,-0.6303,-0.6302,-0.6353,-0.6361,-0.6323,-0.6323,-0.6323,0,-0.5945,-0.5965,-0.5998,-0.6015,-0.603,-0.6057,-0.6075,-0.6091,-0.611,-0.6141,-0.6158,-0.6188,-0.6213,-0.626,-0.6281,-0.631,-0.6314,-0.633,-0.6318,-0.6315,-0.6316,-0.6315,-0.6318,-0.6332,-0.6332,-0.6333,-0.6333,0,-0.5978,-0.5986,-0.6011,-0.604,-0.6062,-0.6085,-0.6109,-0.6121,-0.6142,-0.6162,-0.6193,-0.6212,-0.6251,-0.6281,-0.6312,-0.6328,-0.6335,-0.6336,-0.6342,-0.634,-0.6334,-0.6339,-0.6291,-0.6335,-0.6335,-0.6335,-0.6335,-0.6335,-0.6,-0.6019,-0.6045,-0.6074,-0.6093,-0.6115,-0.6136,-0.6153,-0.6179,-0.6212,-0.6219,-0.6252,-0.6278,-0.632,-0.6337,-0.6362,-0.636,-0.6368,-0.6371,-0.6373,-0.6374,-0.6328,-0.6368,-0.6368,-0.6368,-0.6368,-0.6368,0,-0.6035,-0.6052,-0.6078,-0.6111,-0.6133,-0.6136,-0.6162,-0.6181,-0.6209,-0.6233,-0.6258,-0.6293,-0.6322,-0.6345,-0.6376,-0.6392,-0.6396,-0.64,-0.64,-0.6404,-0.6374,-0.6366,-0.6396,-0.6396,-0.6396,-0.6396,-0.6396,-0.6396,-0.6056,-0.609,-0.6101,-0.6144,-0.6161,-0.6193,-0.6208,-0.6228,-0.6247,-0.6286,-0.6311,-0.6325,-0.6349,-0.6381,-0.6408,-0.6414,-0.6426,-0.643,-0.6436,-0.6408,-0.6405,-0.6403,-0.6396,-0.6431,-0.6431,-0.6464,-0.6465,-0.6465]}]]